GW5799 Weather Reports


time (UTC)temp
C
wind
direction
speed
KPH
gust
KPH
rain 1hr
cm
rain 24hr
cm
rain mn
cm
humidity
%
barometer
mb
20260503214937 9 140 1.6 3.2 0.00 0.00 0.00 86 1029.5
20260503214434 9 105 1.6 3.2 0.00 0.00 0.00 86 1029.4
20260503213931 10 102 3.2 4.8 0.00 0.00 0.00 86 1029.4
20260503213430 10 101 4.8 6.4 0.00 0.00 0.00 85 1029.3
20260503212925 10 106 4.8 8.0 0.00 0.00 0.00 85 1029.2
20260503212423 10 114 6.4 9.7 0.00 0.00 0.00 85 1029.1
20260503211920 10 111 6.4 8.0 0.00 0.00 0.00 85 1029.1
20260503211417 10 104 6.4 8.0 0.00 0.00 0.00 84 1029.3
20260503210912 10 108 4.8 8.0 0.00 0.00 0.00 84 1029.1
20260503210410 10 112 8.0 9.7 0.00 0.00 0.00 84 1029.2
20260503205904 10 108 8.0 11.3 0.00 0.00 0.00 84 1029.2
20260503205402 10 121 6.4 9.7 0.00 0.00 0.00 83 1029.2
20260503204858 10 98 4.8 8.0 0.00 0.00 0.00 83 1029.0
20260503204355 10 114 8.0 9.7 0.00 0.00 0.00 83 1029.2
20260503203852 11 104 6.4 9.7 0.00 0.00 0.00 83 1029.1
20260503203350 11 112 6.4 9.7 0.00 0.00 0.00 82 1028.9
20260503202846 11 101 6.4 11.3 0.00 0.00 0.00 82 1028.9
20260503202345 11 119 8.0 12.9 0.00 0.00 0.00 82 1029.0
20260503201843 11 130 8.0 14.5 0.00 0.00 0.00 82 1028.9
20260503201339 11 133 9.7 14.5 0.00 0.00 0.00 82 1028.8
20260503200837 11 124 11.3 12.9 0.00 0.00 0.00 82 1028.8
20260503200332 11 120 8.0 11.3 0.00 0.00 0.00 82 1028.9
20260503195830 11 116 8.0 11.3 0.00 0.00 0.00 82 1029.0
20260503195326 11 124 8.0 12.9 0.00 0.00 0.00 82 1028.9
20260503194824 11 125 8.0 8.0 0.00 0.00 0.00 82 1029.1
20260503194319 11 130 6.4 8.0 0.00 0.00 0.00 82 1029.3
20260503193816 11 128 8.0 12.9 0.00 0.00 0.00 82 1029.0
20260503193312 11 134 8.0 11.3 0.00 0.00 0.00 82 1029.2
20260503192808 11 121 8.0 9.7 0.00 0.00 0.00 82 1029.3
20260503192305 11 125 6.4 9.7 0.00 0.00 0.00 83 1029.2
20260503191800 10 138 8.0 8.0 0.00 0.00 0.00 83 1029.2
20260503191257 10 129 3.2 8.0 0.00 0.00 0.00 82 1029.5
20260503190754 11 132 3.2 4.8 0.00 0.00 0.00 82 1029.2
20260503190251 11 115 4.8 6.4 0.00 0.00 0.00 83 1029.3
20260503185748 10 128 6.4 8.0 0.00 0.00 0.00 83 1029.4
20260503185243 10 118 6.4 8.0 0.00 0.00 0.00 84 1029.2
20260503184738 10 134 4.8 6.4 0.00 0.00 0.00 83 1029.2
20260503184235 10 148 4.8 8.0 0.00 0.00 0.00 83 1029.2
20260503183731 10 141 6.4 6.4 0.00 0.00 0.00 81 1029.0
20260503183229 10 139 1.6 3.2 0.00 0.00 0.00 80 1029.1
20260503182726 11 164 3.2 3.2 0.00 0.00 0.00 80 1029.1
20260503182225 11 117 6.4 8.0 0.00 0.00 0.00 81 1029.2
20260503181721 11 107 8.0 8.0 0.00 0.00 0.00 81 1029.1
20260503181218 11 99 6.4 8.0 0.00 0.00 0.00 81 1029.0
20260503180714 11 114 8.0 9.7 0.00 0.00 0.00 81 1029.1
20260503180213 11 116 6.4 9.7 0.00 0.00 0.00 81 1029.2
20260503175710 11 119 6.4 9.7 0.00 0.00 0.00 81 1029.0
20260503175208 11 117 8.0 9.7 0.00 0.00 0.00 81 1029.3
20260503174703 11 100 8.0 11.3 0.00 0.00 0.00 81 1029.1
20260503174201 11 118 8.0 12.9 0.00 0.00 0.00 82 1029.0
20260503173656 10 127 12.9 12.9 0.00 0.00 0.00 81 1029.0
20260503173152 11 126 4.8 6.4 0.00 0.00 0.00 81 1029.0
20260503172649 11 97 4.8 6.4 0.00 0.00 0.00 81 1028.8
20260503172147 11 102 6.4 8.0 0.00 0.00 0.00 81 1029.0
20260503171643 11 85 4.8 6.4 0.00 0.00 0.00 80 1029.0
20260503171140 11 107 6.4 8.0 0.00 0.00 0.00 80 1029.0
20260503170637 11 101 6.4 8.0 0.00 0.00 0.00 81 1028.8
20260503170134 11 122 6.4 8.0 0.00 0.00 0.00 81 1028.9
20260503150526 12 132 8.0 11.3 0.00 0.00 0.00 75 1028.9
20260503131419 13 135 8.0 9.7 0.00 0.00 0.00 73 1028.6
20260503130915 14 140 8.0 11.3 0.00 0.00 0.00 73 1028.6
20260503130413 14 127 8.0 11.3 0.00 0.00 0.00 73 1028.6
20260503110817 15 147 9.7 12.9 0.00 0.00 0.00 68 1028.1
20260503110314 15 148 9.7 11.3 0.00 0.00 0.00 68 1027.9
20260503100240 17 142 6.4 8.0 0.00 0.00 0.00 63 1027.3
20260503090200 20 212 0.0 4.8 0.00 0.00 0.00 59 1026.9
20260503081636 20 226 11.3 12.9 0.00 0.00 0.00 59 1026.8
20260503081132 20 224 11.3 17.7 0.00 0.00 0.00 59 1026.9
20260503080628 20 238 3.2 14.5 0.00 0.00 0.00 62 1026.7
20260503080125 20 209 9.7 17.7 0.00 0.00 0.00 60 1026.8
20260503072602 20 220 12.9 20.9 0.00 0.00 0.00 61 1026.9
20260503072059 20 217 16.1 22.5 0.00 0.00 0.00 61 1026.9
20260503071556 20 224 12.9 20.9 0.00 0.00 0.00 62 1026.9
20260503071053 20 254 8.0 16.1 0.00 0.00 0.00 60 1026.8
20260503070549 20 236 11.3 17.7 0.00 0.00 0.00 61 1026.8
20260503055008 18 229 24.1 27.4 0.00 0.00 0.00 64 1027.2
20260503054504 19 206 12.9 22.5 0.00 0.00 0.00 62 1027.2
20260503054002 19 220 17.7 20.9 0.00 0.00 0.00 61 1027.1
20260503053500 20 238 14.5 19.3 0.00 0.00 0.00 59 1027.2
20260503052956 19 234 6.4 20.9 0.00 0.00 0.00 61 1027.4
20260503052454 20 212 11.3 17.7 0.00 0.00 0.00 59 1027.2
20260503051950 20 217 11.3 16.1 0.00 0.00 0.00 55 1027.4
20260503051446 20 145 1.6 9.7 0.00 0.00 0.00 57 1027.4
20260503050943 20 155 8.0 14.5 0.00 0.00 0.00 57 1027.4
20260503050439 20 102 6.4 11.3 0.00 0.00 0.00 56 1027.4
20260503045937 20 50 6.4 9.7 0.00 0.00 0.00 58 1027.5
20260503045434 19 123 8.0 9.7 0.00 0.00 0.00 58 1027.6
20260503044931 20 85 9.7 11.3 0.00 0.00 0.00 57 1027.7
20260503044427 20 64 4.8 11.3 0.00 0.00 0.00 59 1027.8
20260503043925 19 31 4.8 8.0 0.00 0.00 0.00 60 1027.9
20260503043421 18 81 6.4 11.3 0.00 0.00 0.00 61 1027.9
20260503042918 20 52 9.7 14.5 0.00 0.00 0.00 59 1027.9
20260503042415 18 92 3.2 11.3 0.00 0.00 0.00 61 1028.0
20260503041911 18 72 9.7 16.1 0.00 0.00 0.00 61 1028.3
20260503041408 18 21 6.4 12.9 0.00 0.00 0.00 62 1028.4
20260503040905 18 50 6.4 11.3 0.00 0.00 0.00 64 1028.3
20260503040403 18 81 11.3 16.1 0.00 0.00 0.00 64 1028.4
20260503035900 18 76 11.3 14.5 0.00 0.00 0.00 62 1028.6
20260503035356 17 101 4.8 9.7 0.00 0.00 0.00 65 1028.7
20260503034854 17 63 6.4 19.3 0.00 0.00 0.00 65 1028.7
20260503034351 17 77 8.0 16.1 0.00 0.00 0.00 65 1028.8
20260503033848 17 64 11.3 14.5 0.00 0.00 0.00 66 1028.6
20260503033346 17 92 8.0 14.5 0.00 0.00 0.00 67 1028.5
20260503032843 17 42 20.9 22.5 0.00 0.00 0.00 67 1028.8
20260503032342 17 80 14.5 17.7 0.00 0.00 0.00 67 1028.7
20260503031839 17 60 11.3 17.7 0.00 0.00 0.00 68 1028.9
20260503031337 17 98 14.5 20.9 0.00 0.00 0.00 68 1028.7
20260503030833 16 75 8.0 19.3 0.00 0.00 0.00 69 1028.6
20260503030330 16 91 17.7 19.3 0.00 0.00 0.00 69 1028.8
20260503025827 16 102 11.3 22.5 0.00 0.00 0.00 70 1028.8
20260503025324 16 68 9.7 17.7 0.00 0.00 0.00 71 1029.0
20260503024821 16 92 12.9 20.9 0.00 0.00 0.00 70 1029.0
20260503024317 16 97 11.3 17.7 0.00 0.00 0.00 70 1029.2
20260503023814 16 88 8.0 16.1 0.00 0.00 0.00 72 1029.1
20260503023312 16 97 17.7 22.5 0.00 0.00 0.00 71 1029.2
20260503022809 16 94 19.3 24.1 0.00 0.00 0.00 72 1029.1
20260503022308 15 93 12.9 20.9 0.00 0.00 0.00 73 1029.1
20260503021805 15 100 12.9 17.7 0.00 0.00 0.00 74 1029.3
20260503021301 15 86 12.9 22.5 0.00 0.00 0.00 75 1029.2
20260503020759 15 101 19.3 20.9 0.00 0.00 0.00 75 1029.3
20260503020256 15 112 11.3 22.5 0.00 0.00 0.00 76 1029.3
20260503015752 15 108 16.1 19.3 0.00 0.00 0.00 77 1029.2
20260503015249 15 84 12.9 22.5 0.00 0.00 0.00 77 1029.2
20260503014745 15 107 11.3 14.5 0.00 0.00 0.00 80 1029.3
20260503014243 14 98 14.5 22.5 0.00 0.00 0.00 80 1029.2
20260503013740 14 118 22.5 24.1 0.00 0.00 0.00 80 1029.4
20260503013238 14 153 12.9 19.3 0.00 0.00 0.00 80 1029.3
20260503012735 13 87 16.1 19.3 0.00 0.00 0.00 82 1029.5
20260503012232 13 122 17.7 24.1 0.00 0.00 0.00 82 1029.4
20260503011728 13 112 17.7 20.9 0.00 0.00 0.00 83 1029.5
20260503011226 13 116 9.7 20.9 0.00 0.00 0.00 84 1029.5
20260503010722 12 106 11.3 24.1 0.00 0.00 0.00 85 1029.3
20260503010219 12 95 9.7 16.1 0.00 0.00 0.00 86 1029.5
20260503005716 12 103 11.3 19.3 0.00 0.00 0.00 86 1029.5
20260503005213 12 120 14.5 17.7 0.00 0.00 0.00 87 1029.5
20260503004710 11 94 9.7 20.9 0.00 0.00 0.00 89 1029.4
20260503004208 11 121 14.5 19.3 0.00 0.00 0.00 89 1029.5
20260503003705 11 130 14.5 19.3 0.00 0.00 0.00 89 1029.3
20260503003202 11 105 14.5 20.9 0.00 0.00 0.00 90 1029.5
20260503002658 11 114 16.1 20.9 0.00 0.00 0.00 90 1029.5
20260503002155 10 121 6.4 16.1 0.00 0.00 0.00 91 1029.3
20260503001651 10 96 14.5 19.3 0.00 0.00 0.00 91 1029.3
20260503001148 10 103 8.0 11.3 0.00 0.00 0.00 92 1029.3
20260503000646 10 133 6.4 11.3 0.00 0.00 0.00 92 1029.4
20260503000143 9 117 14.5 16.1 0.00 0.00 0.00 92 1029.3
20260502235639 9 129 9.7 11.3 0.00 0.00 0.00 92 1029.3
20260502235138 8 142 3.2 8.0 0.00 0.00 0.00 93 1029.2
20260502234633 8 141 4.8 6.4 0.00 0.00 0.00 92 1029.0
20260502234131 8 154 4.8 4.8 0.00 0.00 0.00 93 1029.1
20260502233627 8 132 4.8 6.4 0.00 0.00 0.00 94 1028.8
20260502233124 8 110 4.8 8.0 0.00 0.00 0.00 94 1028.9
20260502232619 7 150 3.2 6.4 0.00 0.00 0.00 94 1028.7
20260502232117 7 107 4.8 4.8 0.00 0.00 0.00 94 1028.7
20260502231614 6 126 3.2 4.8 0.00 0.00 0.00 94 1028.6
20260502231112 6 141 4.8 4.8 0.00 0.00 0.00 94 1028.7
20260502230610 6 143 3.2 8.0 0.00 0.00 0.00 95 1028.5
20260502230108 6 109 6.4 6.4 0.00 0.00 0.00 95 1028.3
20260502225603 6 111 3.2 4.8 0.00 0.00 0.00 94 1028.3
20260502225100 6 112 4.8 4.8 0.00 0.00 0.00 94 1028.0
20260502224556 6 116 3.2 4.8 0.00 0.00 0.00 94 1028.1
20260502224054 6 133 3.2 4.8 0.00 0.00 0.00 94 1028.1
20260502223551 6 159 3.2 3.2 0.00 0.00 0.00 94 1028.1
20260502223050 6 119 3.2 4.8 0.00 0.00 0.00 94 1028.1
20260502222546 6 119 4.8 4.8 0.00 0.00 0.00 94 1028.1
20260502222043 7 109 4.8 4.8 0.00 0.00 0.00 94 1028.1
20260502221538 7 102 6.4 8.0 0.00 0.00 0.00 94 1028.1
20260502221036 7 100 4.8 8.0 0.05 0.00 0.00 94 1028.2
20260502220531 6 110 6.4 6.4 0.05 0.00 0.00 94 1028.0
20260502220029 6 102 4.8 8.0 0.00 0.00 0.00 94 1027.9
20260502215526 6 108 4.8 6.4 0.00 0.00 0.00 94 1027.9